Location: Bergershof
(48.9464°N, 10.7090°E)
Time: 15:08:18
(UTC+00:00)

Daily predictions for brighter satellites

Satellite Brightness Start Highest point End
(mag) Time Altitude Azimuth Time Altitude Azimuth Time Altitude Azimuth
Cosmos 1842 Rocket 3.6 15:49:44 10° S 15:54:11 81° E 15:58:42 10° NNE
ERBS 3.7 15:52:18 10° WNW 15:55:01 25° NNW 15:57:45 10° NE
Cosmos 540 Rocket 4.1 15:50:34 10° SSE 15:55:12 36° ESE 15:59:52 10° NE
CZ-4C R/B 3.2 15:51:22 10° NNE 15:55:13 81° ESE 15:58:51 10° SSW
SL-16 R/B 4.4 15:52:22 10° N 15:57:16 25° NW 16:02:11 10° WSW
Lacrosse 5 rocket 2.0 15:55:24 10° NW 15:58:56 34° NNE 16:02:38 10° E
ATLAS CENTAUR R/B 3.5 15:56:50 10° WNW 15:59:58 19° NNW 16:03:18 10° NNE
Cosmos 1092 Rocket 4.1 15:56:07 10° N 16:02:23 56° ENE 16:08:35 10° SSE
Cosmos 1666 4.1 16:01:11 10° NNE 16:03:45 18° ENE 16:06:19 10° ESE
USA 308 3.5 15:59:52 10° WNW 16:03:54 41° N 16:07:58 10° ENE
MOS 1 Rocket 4.2 16:00:56 10° N 16:05:48 53° WNW 16:10:21 10° SW
COSMOS 2455 3.4 16:01:52 10° S 16:07:26 41° ESE 16:13:02 10° NE
Spot 1 4.4 16:06:35 10° NNE 16:11:19 70° ESE 16:16:17 10° S
Cosmos 2322 Rocket 3.5 16:09:51 10° N 16:13:58 20° NE 16:18:05 10° E
Cosmos 1697 Rocket 2.9 16:08:32 10° NNW 16:14:10 81° WSW 16:19:47 10° SSE
CZ-4C R/B 3.0 16:08:54 10° NW 16:15:47 62° NE 16:23:58 10° ESE
Cosmos 468 Rocket 4.0 16:13:33 10° SSW 16:18:43 89° ESE 16:23:59 10° NNE
PSLV R/B 4.3 16:15:56 10° SE 16:19:17 33° ENE 16:22:41 10° N
Cosmos 1980 Rocket 2.2 16:13:47 10° NNW 16:19:26 64° ENE 16:25:01 10° SE
Meteor 2-21 4.5 16:14:41 10° N 16:20:41 58° ENE 16:26:38 10° SSE
NOAA 12 4.2 16:16:19 10° SSE 16:21:39 86° WSW 16:27:00 10° NNW
COSMO-SKYMED 1 4.1 16:22:42 12° NE 16:25:01 18° E 16:27:58 10° SE
ATLAS CENTAUR R/B 3.0 16:14:41 10° SW 16:25:06 75° SE 16:28:49 14° ENE
Cosmos 1898 Rocket 4.0 16:20:08 10° NNW 16:25:21 64° WSW 16:30:28 10° S
Cosmos 1627 Rocket 4.4 16:19:12 10° N 16:25:23 69° E 16:31:28 10° SSE
Meteor PRIRODA 4.1 16:22:00 10° S 16:25:37 65° WSW 16:29:14 10° NNW
Cosmos 2369 3.7 16:20:27 10° NNW 16:26:14 86° ENE 16:31:58 10° SSE
Cosmos 1933 3.3 16:23:53 10° S 16:27:55 75° E 16:31:57 10° NNE
Cosmos 1633 Rocket 3.7 16:25:10 10° N 16:29:07 32° ENE 16:33:04 10° SE
USA 305 3.4 16:25:30 10° WNW 16:29:34 43° N 16:32:38 16° ENE
Cosmos 2279 Rocket 4.5 16:24:12 10° SSE 16:29:50 38° E 16:35:29 10° NNE
FengYun 1-2 T 4.3 16:24:37 10° SSE 16:30:13 88° W 16:35:48 10° NNW
Cosmos 2034 Rocket 4.3 16:24:27 10° SSW 16:30:36 73° W 16:36:47 10° N
CZ-4B R/B 3.4 16:26:52 10° S 16:30:48 62° WSW 16:34:35 10° NNW
NOSS 2-2 (C) 4.4 16:26:07 10° NW 16:31:11 88° SW 16:38:21 10° SE
Cosmos 1812 3.5 16:28:11 10° SSE 16:31:36 31° E 16:34:51 11° NNE
CORIOLIS 4.1 16:26:31 10° SSE 16:31:54 72° ENE 16:37:20 10° NNW
Cosmos 1818 3.9 16:26:56 10° NNW 16:32:15 47° NE 16:37:30 10° ESE
SL-16 R/B 3.0 16:28:35 10° NNW 16:33:32 30° NE 16:38:28 10° ESE
YAOGAN 1 4.3 16:36:55 14° NE 16:36:55 14° NE 16:38:21 10° NNE
AQUARIUS 4.1 16:31:58 10° SSE 16:36:26 75° ENE 16:40:56 10° N
Cosmos 1151 Rocket 3.6 16:32:53 10° SSE 16:36:49 35° E 16:40:47 10° NNE
Cosmos 2082 Rocket 2.4 16:32:20 10° S 16:37:50 55° ESE 16:43:01 12° NE
USA 267 3.3 16:32:04 13° ENE 16:37:56 73° SE 16:44:28 10° SW
SMAP 3.1 16:36:37 10° SSE 16:41:16 85° WSW 16:45:57 10° NNW
Meteor 2-14 Rocket 4.4 16:35:50 10° N 16:41:58 82° E 16:48:03 10° SSE
Meteor 1-14 Rocket 4.3 16:37:43 10° N 16:43:30 60° ENE 16:49:22 10° SSE
ARGOS 3.5 16:42:53 10° SE 16:47:55 40° ENE 16:52:55 10° N
MOS 1-B 4.3 16:42:17 10° SSE 16:47:59 64° ENE 16:53:43 10° N
Cosmos 2333 Rocket 3.8 16:44:54 10° N 16:48:14 15° NNE 16:49:04 15° NE
Cosmos 1763 Rocket 4.2 16:43:38 10° SW 16:48:35 51° WNW 16:53:36 10° NNE
Cosmos 1634 Rocket 4.0 16:43:01 10° S 16:49:20 79° E 16:55:42 10° NNE
Cosmos 2278 3.6 16:43:46 10° NNW 16:49:31 77° ENE 16:55:12 10° SSE
Cosmos 2026 Rocket 4.0 16:43:52 10° N 16:50:02 83° W 16:56:05 10° S
CZ-4B DEB 4.2 16:45:44 10° SSE 16:51:15 88° ENE 16:56:46 10° NNW
GEOS 3 Rocket 4.4 16:49:28 20° ENE 16:52:09 31° NNE 16:56:40 10° NNW
Cosmos 44 Rocket 3.3 16:49:29 10° NNW 16:54:24 59° NE 16:59:08 10° SE
Cosmos 1833 Rocket 3.2 16:50:04 10° SW 16:55:36 59° WNW 17:01:12 10° NNE
Cosmos 2150 Rocket 4.4 16:51:16 10° NNW 16:56:09 40° ENE 17:01:04 10° SE
Cosmos 841 Rocket 3.4 16:51:39 10° SSW 16:56:49 90° ESE 17:01:46 11° NNE
Cosmos 1666 Rocket 3.5 16:52:27 10° N 16:56:55 72° E 17:01:18 10° SSE
MOS 1-B Rocket 4.2 16:52:00 10° NNE 16:57:52 56° ESE 17:04:33 10° S
Okean O Rocket 2.0 16:53:44 10° SE 16:57:55 42° ENE 17:02:08 10° N
Cosmos 1470 Rocket 4.0 16:56:03 10° N 17:00:16 40° ENE 17:04:29 10° SE
Cosmos 1328 Rocket 3.9 16:56:16 10° SSE 17:00:28 43° E 17:03:23 18° NNE
H-2A R/B 1.9 16:56:20 10° SSE 17:01:28 78° ENE 17:06:30 10° NNW
USA 306 3.2 16:57:48 10° WNW 17:01:58 49° NNE 17:03:36 31° ENE
Cosmos 1939 Rocket 4.2 16:58:55 10° S 17:02:52 44° W 17:06:46 10° NNW
COSMOS 2406 3.6 16:59:02 10° SW 17:04:44 64° WNW 17:10:10 11° NNE
Cosmos 2219 Rocket 3.9 17:01:34 10° N 17:04:46 15° NNE 17:04:46 15° NNE
ISS -2.1 17:02:03 10° W 17:05:09 33° SW 17:08:15 10° SSE
ATLAS 2AS CENTAUR R/B 4.1 17:00:50 10° NW 17:07:01 26° N 17:10:37 18° NE
CZ-2C R/B 2.8 17:02:59 13° NNE 17:07:30 48° E 17:12:29 10° S
Meteor 2-21 Rocket 4.4 17:01:41 10° N 17:07:49 86° W 17:13:53 10° S
Cosmos 1125 Rocket 3.7 17:03:24 10° NNW 17:08:28 46° ENE 17:13:32 10° SE
Cosmos 1500 4.2 17:06:47 10° NNW 17:10:24 47° W 17:13:58 10° SSW
USA 234 3.5 17:06:01 10° SE 17:12:33 70° SW 17:19:04 10° WNW
SKYMED 2 3.7 17:11:18 26° NE 17:13:26 50° E 17:17:39 10° S
Cosmos 1782 3.8 17:13:10 10° SSW 17:17:02 48° WNW 17:20:55 10° N
Cosmos 1900 4.4 17:12:22 10° SSW 17:17:07 56° ESE 17:18:52 36° ENE
Sich 1 4.5 17:13:56 10° NNW 17:17:57 39° W 17:21:58 10° SSW
CZ-2D R/B 3.8 17:14:25 10° S 17:18:12 60° W 17:22:00 10° NNW
Cosmos 1655 Rocket 4.0 17:12:22 10° N 17:18:42 58° ENE 17:24:57 10° SSE
CZ-4B R/B 3.0 17:15:04 10° SSE 17:20:28 85° ENE 17:25:49 10° NNW
USA 307 3.1 17:17:26 10° WNW 17:21:37 53° NNE 17:22:25 45° NE
Cosmos 2180 Rocket 4.4 17:16:41 10° S 17:22:58 71° E 17:29:13 10° NNE
Meteor 2-6 Rocket 4.1 17:17:30 10° S 17:23:11 70° E 17:28:31 11° NNE
SJ-11-01 4.2 17:20:03 10° SSE 17:24:47 77° ENE 17:29:32 10° N
ATLAS 5 CENTAUR R/B 1.8 17:18:46 10° NW 17:25:55 64° NE 17:26:27 54° E
deb Chang Zheng 4 3.5 17:26:18 10° SSE 17:30:36 83° WSW 17:34:56 10° NNW
ERBS 4.3 17:29:16 10° NW 17:30:53 18° NNW 17:30:53 18° NNW
Cosmos 2237 4.4 17:28:22 10° NNW 17:33:54 47° NE 17:34:57 42° E
Cosmos 2360 Rocket 2.7 17:32:14 10° NNW 17:37:21 39° NE 17:37:21 39° NE
Lacrosse 5 rocket 1.4 17:34:21 10° WNW 17:38:16 69° SW 17:39:13 48° SSE
Cosmos 1666 4.0 17:35:59 10° NNW 17:39:28 39° W 17:42:56 10° SSW
ATLAS CENTAUR R/B 4.0 17:39:04 10° NNW 17:40:38 11° N 17:41:01 11° N
USA 308 2.9 17:40:03 10° WNW 17:44:08 63° N 17:44:08 63° N
Cosmos 1515 Rocket 3.5 17:40:39 10° S 17:44:48 67° ESE 17:44:48 67° ESE
Meteor 1-11 Rocket 3.6 17:46:41 10° N 17:52:20 85° ENE 17:58:06 10° SSE
Meteor 1-10 Rocket 4.1 17:46:56 10° S 17:52:42 87° ESE 17:56:15 24° NNE
COSMOS 2455 3.6 17:47:32 10° WSW 17:53:20 47° NW 17:56:39 24° NNE
COSMOS 2428 4.4 17:49:39 10° N 17:52:06 19° NNE 17:52:06 19° NNE
Cosmos 921 Rocket 3.0 17:53:57 10° SSW 17:57:55 75° WSW 17:57:55 75° WSW
Cosmos 2322 Rocket 2.0 17:53:14 10° NNW 17:58:58 79° ENE 18:00:16 55° SE
SL-08 RB Rocket 3.9 17:55:19 10° S 17:59:56 73° WSW 18:04:33 10° NNW
COSMO-SKYMED 1 3.2 17:59:55 34° NNW 18:01:31 55° WNW 18:05:45 10° SSW
Cosmos 2298 Rocket 4.5 17:56:49 10° NNW 18:02:05 62° WSW 18:07:20 10° S
Cosmos 1980 Rocket 4.5 17:58:33 10° NW 18:02:58 24° WSW 18:07:20 10° SSW
CZ-4C R/B 4.0 17:57:32 10° NW 18:04:27 45° WSW 18:12:20 10° S
Meteor 2-15 Rocket 4.4 18:03:35 10° S 18:09:44 84° W 18:14:07 20° N
USA 305 3.7 18:05:29 10° WNW 18:08:39 49° WNW 18:08:39 49° WNW
YAOGAN 1 4.3 18:14:03 23° NNW 18:14:03 23° NNW 18:15:46 10° NNW
CZ-2C R/B 4.1 18:14:10 10° SSW 18:14:25 10° SSW 18:14:25 10° SSW
SL-16 R/B 2.6 18:12:27 10° NW 18:18:02 60° WSW 18:21:04 27° S
USA 267 3.6 18:19:25 47° NNE 18:20:51 56° NNW 18:27:12 10° W
Cosmos 2237 Rocket 4.5 18:17:25 10° N 18:17:59 12° N 18:17:59 12° N
Cosmos 2082 Rocket 3.7 18:17:12 10° WSW 18:22:14 32° NW 18:24:53 22° N
GEOS 3 Rocket 3.9 18:30:35 65° WNW 18:30:35 65° WNW 18:35:05 10° NW
Cosmos 2333 Rocket 3.6 18:28:15 10° NNW 18:31:06 28° N 18:31:06 28° N
Okean O Rocket 3.8 18:30:47 10° SSW 18:34:25 24° W 18:38:05 10° NW
CZ-2C R/B 4.3 18:44:29 16° NNW 18:47:35 28° WNW 18:51:55 10° WSW
Cosmos 2219 Rocket 4.0 18:44:34 10° NNW 18:46:30 21° NNW 18:46:30 21° NNW
ATLAS CENTAUR R/B 4.4 18:51:40 10° WNW 18:54:28 20° NW 18:54:28 20° NW
NOSS 3-4 (A) 4.3 18:50:13 10° NW 18:55:00 47° NNW 18:55:00 47° NNW
NOSS 3-4 (C) 4.4 18:50:19 10° NW 18:55:05 46° NNW 18:55:05 46° NNW
ATLAS 2AS CENTAUR R/B 3.9 18:53:09 10° NW 18:58:02 33° N 18:58:02 33° N
Cosmos 2360 Rocket 3.9 19:16:17 10° NW 19:19:09 28° WNW 19:19:09 28° WNW
Cosmos 2322 Rocket 4.5 19:38:28 10° WNW 19:42:10 19° W 19:42:10 19° W
